Location: Altenst�hlen
(53.5567°N, 8.9425°E)
Time: 00:00:04
(UTC+00:00)

STARLINK-76 - Pass Details

Date: 23 October 2019
Orbit: 548 x 551 km, 53.0° (Epoch: 14 November)

Event Time Altitude Azimuth Distance (km) Brightness Sun altitude
Rises 17:58:42 0° 278° (W) 2,719 9.0 -16.6°
Reaches altitude 10° 18:00:56 10° 277° (W) 1,825 7.6 -17.0°
Maximum altitude 18:05:04 74° 193° (SSW) 577 3.6 -17.6°
Enters shadow 18:06:31 39° 117° (ESE) 839 4.1 -17.8°
